Location: Carrer del Canonge
(41.4901°N, 2.2931°E)
Time: 04:08:08
(UTC+00:00)

Cosmos 858 Rocket - Pass Details

Date: 18 September 2020
Orbit: 756 x 774 km, 74.1° (Epoch: 25 October)

Event Time Altitude Azimuth Distance (km) Brightness Sun altitude
Rises 18:35:13 0° 193° (SSW) 3,218 7.8 -8.4°
Reaches altitude 10° 18:37:35 10° 192° (SSW) 2,294 7.0 -8.9°
Maximum altitude 18:42:46 76° 108° (ESE) 788 4.4 -9.8°
Drops below altitude 10° 18:47:59 10° 23° (NNE) 2,298 6.9 -10.8°
Sets 18:50:21 0° 22° (NNE) 3,226 7.6 -11.2°
